Regional Weather Roundup
Issued by NWS Kansas City/Pleasant Hill, MO

Home | Current Version | Previous Version | Graphics & Text | Print | Product List | Glossary Off
Versions: 1 2 3 4 5 6 7 8 9 10 11 12 13 14 15 16 17 18 19 20 21 22 23 24 25 26 27 28 29 30 31 32 33 34 35 36 37 38 39 40 41 42 43 44 45 46 47 48 49 50

000
ASUS43 KEAX 262110
RWREAX

WEATHER ROUNDUP FOR EASTERN KANSAS AND NORTHWEST MISSOURI
NATIONAL WEATHER SERVICE KANSAS CITY/PLEASANT HILL MO
400 PM CDT MON JUN 26 2017

KSZ040-057-103>105-MOZ028-029-037-043-262200-
...KANSAS CITY METROPOLITAN AREA...

CITY           SKY/WX    TMP DP  RH WIND       PRES   REMARKS
K.C. INTL      CLOUDY    68  55  63 S9        30.14F
K.C. DOWNTOWN  PTSUNNY   73  53  49 S13       30.13F
LEES SUMMIT    MOSUNNY   70  55  59 SE13      30.15F
OLATHE - IXD   SUNNY     71  55  56 SE14G24   30.14F
OLATHE - OJC   MOSUNNY   68  54  60 SE13G21   30.14F
LAWRENCE       SUNNY     73  57  57 E12       30.13F

$$

MOZ001>008-011>017-020>025-030>033-038>040-044>046-053-054-262200-
...NORTHERN AND CENTRAL MISSOURI...

CITY           SKY/WX    TMP DP  RH WIND       PRES   REMARKS
ST. JOSEPH     CLOUDY    67  61  81 S5        30.14F
MOSBY          PTCLDY    64  55  72 S5        30.14F
WARRENSBURG    MOSUNNY   66  55  68 SE8       30.13F
WHITEMAN AFB   PTSUNNY   61  61 100 S5        30.13F
CLINTON        PTSUNNY   66  57  72 E14       30.18F
SEDALIA        LGT RAIN  61  60  97 S10       30.17F
WARSAW         NOT AVBL
CHILLICOTHE      N/A     67  58  72 S6        30.16S
KIRKSVILLE     SUNNY     72  55  55 W9G18     30.14F

$$

MOZ041-047>049-056>058-063>065-088>090-097-262200-
...EASTERN AND SOUTHERN MISSOURI...

CITY           SKY/WX    TMP DP  RH WIND       PRES   REMARKS
ST. LOUIS INTL CLOUDY    74  50  42 SW8       30.14F
SPIRIT OF STL  CLOUDY    72  52  49 NW7       30.14F
COLUMBIA       LGT RAIN  61  58  90 S13       30.14F
JEFFERSON CITY LGT RAIN  63  58  83 S3        30.18F
ROLLA          CLOUDY    68  53  58 N10G24    30.18R
OSAGE BEACH    CLOUDY    64  55  72 N7        30.21R
SPRINGFIELD    CLOUDY    73  63  70 N13       30.14F
BRANSON        CLOUDY    79  59  50 CALM      30.14F
JOPLIN         CLOUDY    84  63  49 SW9       30.09F
WEST PLAINS    CLOUDY    74  61  63 SW6       30.15F

$$

IAZ060-094-KSZ022-034>040-054-083-096-NEZ052-066-093-262200-
...KANSAS...SOUTHEAST NEBRASKA AND IOWA...

CITY           SKY/WX    TMP DP  RH WIND       PRES   REMARKS
TOPEKA         SUNNY     76  59  55 E13       30.12F
MANHATTAN      SUNNY     81  61  50 E13G18    30.09F
EMPORIA        SUNNY     81  61  50 E8        30.08F
CHANUTE        PTSUNNY   79  64  60 E10G20    30.09F
WICHITA        MOSUNNY   87  58  37 VRB6      30.06F
OMAHA          MOSUNNY   77  52  41 N10       30.12F
LINCOLN        PTSUNNY   75  60  59 E10       30.12F
FALLS CITY     CLOUDY    69  57  65 VRB3      30.14F
LAMONI         PTSUNNY   73  57  57 W10       30.13F
DES MOINES     MOSUNNY   74  52  46 NW8       30.12F

$$




USA.gov is the U.S. government's official web portal to all federal, state and local government web resources and services.